Charlotte, NC

2:42 PM EST on February 22, 2018 (GMT -0500)
Charlotte-Douglas International

Weather History for KCLT - January, 2014

Change the Weather History Date:

Wednesday, January 22, 2014

  Actual Average Record
Temperature  
Mean Temperature 28 °F 40 °F  
Max Temperature 36 °F 51 °F 74 °F (1937)
Min Temperature 20 °F 30 °F 5 °F (1970)
Degree Days  
Heating Degree Days 37 25  
Month to date heating degree days 595 550  
Since 1 July heating degree days 1822 1887  
Cooling Degree Days 0 0  
Month to date cooling degree days 0 0  
Year to date cooling degree days 0 0  
Moisture  
Dew Point 6 °F    
Average Humidity 40    
Maximum Humidity 62    
Minimum Humidity 17    
Precipitation  
Precipitation 0.00 in 0.11 in 1.79 in (1954)
Month to date precipitation 2.80 2.46  
Year to date precipitation 2.80 2.46  
Snow  
Snow 0.00 in 0.10 in 5.60 in (1987)
Month to date snowfall 0.0 1.5  
Since 1 July snowfall T 1.9  
Snow Depth 0.00 in    
Sea Level Pressure  
Sea Level Pressure 30.00 in    
Wind  
Wind Speed 6 mph (WNW)    
Max Wind Speed 14 mph    
Max Gust Speed 18 mph    
Visibility 10 miles    
Events      
T = Trace of Precipitation, MM = Missing Value Source: NWS Daily Summary

Daily Weather History Graph

Daily Weather History Graph

Search for Another Location

Airport or City:

Trip Planner

Search our weather history database for the weather conditions in past years. The results will help you decide how hot, cold, wet, or windy it might be!

Date:

Astronomy

Jan. 22, 2014 Rise Set
Actual Time 7:29 AM EST 5:41 PM EST
Civil Twilight 7:01 AM EST 6:09 PM EST
Nautical Twilight 6:31 AM EST 6:40 PM EST
Astronomical Twilight 6:00 AM EST 7:10 PM EST
Moon 11:56 PM EST 10:44 AM EST
Length of Visible Light 11h 07m
Length of Day
10h 12m
Waning Gibbous, 65% of the Moon is Illuminated
Jan 22
Waning Gibbous
Jan 24
Last Quarter
Jan 30
New
Feb 6
First Quarter
Feb 14
Full

Hourly Weather History & Observations

Time (EST) Temp. Windchill Dew Point Humidity Pressure Visibility Wind Dir Wind Speed Gust Speed Precip Events Conditions
12:52 AM 28.0 °F 18.1 °F 12.9 °F 53% 29.87 in 10.0 mi North 11.5 mph - N/A   Clear
1:52 AM 27.0 °F 19.5 °F 12.9 °F 56% 29.88 in 10.0 mi NNW 6.9 mph - N/A   Partly Cloudy
2:52 AM 27.0 °F 19.5 °F 12.9 °F 56% 29.91 in 10.0 mi NNW 6.9 mph - N/A   Mostly Cloudy
3:52 AM 26.1 °F 16.8 °F 12.0 °F 55% 29.93 in 10.0 mi North 9.2 mph - N/A   Overcast
4:52 AM 21.9 °F 13.4 °F 10.0 °F 60% 29.94 in 10.0 mi North 6.9 mph - N/A   Partly Cloudy
5:52 AM 23.0 °F 14.7 °F 10.0 °F 58% 29.96 in 10.0 mi NNW 6.9 mph - N/A   Clear
6:52 AM 21.9 °F 13.4 °F 9.0 °F 58% 29.98 in 10.0 mi NNW 6.9 mph - N/A   Partly Cloudy
7:52 AM 21.0 °F 16.2 °F 9.0 °F 60% 30.01 in 10.0 mi NNW 3.5 mph - N/A   Scattered Clouds
8:52 AM 25.0 °F 15.5 °F 7.0 °F 46% 30.03 in 10.0 mi North 9.2 mph - N/A   Clear
9:52 AM 27.0 °F 17.3 °F 6.1 °F 41% 30.06 in 10.0 mi NNW 10.4 mph - N/A   Partly Cloudy
10:52 AM 30.0 °F 24.1 °F 5.0 °F 35% 30.07 in 10.0 mi NW 5.8 mph - N/A   Partly Cloudy
11:52 AM 30.9 °F 26.2 °F 3.0 °F 31% 30.06 in 10.0 mi WSW 4.6 mph - N/A   Partly Cloudy
12:52 PM 33.1 °F 27.7 °F 1.9 °F 27% 30.02 in 10.0 mi West 5.8 mph - N/A   Partly Cloudy
1:52 PM 33.1 °F 28.7 °F -0.0 °F 24% 30.00 in 10.0 mi Variable 4.6 mph - N/A   Partly Cloudy
2:52 PM 36.0 °F 30.3 °F -0.0 °F 22% 29.99 in 10.0 mi NW 6.9 mph - N/A   Clear
3:52 PM 35.1 °F 31.0 °F -5.1 °F 18% 29.99 in 10.0 mi West 4.6 mph - N/A   Clear
4:52 PM 35.1 °F 31.0 °F -2.9 °F 20% 30.01 in 10.0 mi West 4.6 mph - N/A   Clear
5:52 PM 32.0 °F 27.5 °F 3.9 °F 31% 30.02 in 10.0 mi WSW 4.6 mph - N/A   Clear
6:52 PM 30.9 °F 26.2 °F 6.1 °F 35% 30.04 in 10.0 mi Variable 4.6 mph - N/A   Clear
7:52 PM 28.0 °F 22.8 °F 8.1 °F 43% 30.05 in 10.0 mi SSW 4.6 mph - N/A   Clear
8:52 PM 28.9 °F 21.1 °F 5.0 °F 36% 30.06 in 10.0 mi South 8.1 mph - N/A   Clear
9:52 PM 26.1 °F 20.5 °F 3.9 °F 39% 30.06 in 10.0 mi SSW 4.6 mph - N/A   Partly Cloudy
10:52 PM 27.0 °F 23.0 °F 5.0 °F 39% 30.07 in 10.0 mi SW 3.5 mph - N/A   Clear
11:52 PM 26.1 °F 21.9 °F 3.9 °F 39% 30.08 in 10.0 mi West 3.5 mph - N/A   Clear